Regional Weather Roundup
Issued by NWS

Home | Current Version | Previous Version | Graphics & Text | Print | Product List | Glossary On
Versions: 1 2 3 4 5 6 7 8 9 10 11 12 13 14 15 16 17 18 19 20 21 22 23 24 25 26 27 28 29 30 31 32 33 34 35 36 37 38 39 40 41 42 43 44 45 46 47 48 49 50
000
ASUS45 KBOU 031507
RWRCO

WEATHER ROUNDUP FOR COLORADO
NATIONAL WEATHER SERVICE DENVER/BOULDER CO
900 AM MDT MON AUG 03 2015

NOTE: "FAIR" INDICATES FEW OR NO CLOUDS BELOW 12000 FEET WITH NO
SIGNIFICANT WEATHER AND/OR OBSTRUCTIONS TO VISIBILITY.

COZ001>005-013-030-031-031600-
...NORTHWEST COLORADO...

CITY           SKY/WX    TMP DP  RH WIND       PRES   REMARKS
CRAIG          CLOUDY    62  56  80 E3        30.18S
HAYDEN         CLOUDY    61  50  67 CALM      30.22R
MEEKER         CLOUDY    62  55  77 CALM      30.20S
MOUNT WERNER   NOT AVBL
STEAMBOAT SPGS CLOUDY    62  50  64 CALM      30.22S
WALDEN         PTSUNNY   59  45  58 SW3       30.30S
$$

COZ006>008-011-031600-
...WEST CENTRAL VALLEYS...

CITY           SKY/WX    TMP DP  RH WIND       PRES   REMARKS
GRAND JUNCTION SUNNY     70  58  65 SE8       30.11R
MONTROSE       SUNNY     67  57  70 VRB3      30.20S
EAGLE          CLOUDY    61  55  82 CALM      30.27R
RIFLE          CLOUDY    63  59  87 CALM      30.18S
DELTA          SUNNY     71  58  64 NE9       30.17S
NUCLA          SUNNY     64  55  72 CALM      30.25S
$$

COZ017>023-064>068-031600-
...SOUTHWEST COLORADO...

CITY           SKY/WX    TMP DP  RH WIND       PRES   REMARKS
DURANGO        SUNNY     62  54  74 CALM      30.26S
CORTEZ         SUNNY     67  57  70 CALM      30.22R
PAGOSA SPRINGS PTSUNNY   60  56  84 CALM      30.33R
TELLURIDE      MOSUNNY   58  50  75 CALM      30.41S
WOLF CREEK PAS NOT AVBL
$$

COZ009-010-012-014-032>034-037-058>063-031600-
...CENTRAL COLORADO...

CITY           SKY/WX    TMP DP  RH WIND       PRES   REMARKS
ASPEN          CLOUDY    55  52  89 CALM      30.31R
BUENA VISTA    CLOUDY    56  51  81 N5        30.33S
COPPER MTN     CLOUDY    52  32  46 SE15G22   30.57R
BERTHOUD PASS  CLOUDY    43  32  65 SE40G52   30.59F
COTTONWOOD PAS CLOUDY    54  43  66 N3        30.44S
GUNNISON       CLOUDY    55  52  88 CALM      30.35R
KREMMLING      CLOUDY    61  45  55 CALM      30.28S
LEADVILLE      CLOUDY    49  48  97 CALM      30.44R
MONARCH PASS   DRIZZLE   43  37  81 CALM      30.66S
SALIDA         CLOUDY    59  55  87 CALM      30.38S
SUNLIGHT       LGT RAIN  46  46 100 SE3       30.51S
WILKERSON PASS CLOUDY    48  36  61 CALM      30.56S
$$

COZ069>075-031600-
...SAN LUIS VALLEY/SANGRE DE CRISTO MOUNTAINS...

CITY           SKY/WX    TMP DP  RH WIND       PRES   REMARKS
ALAMOSA        CLOUDY    59  52  77 CALM      30.30R
LA VETA PASS   CLOUDY    46  45  93 MISG      30.43S FOG
SAGUACHE       PTSUNNY   59  55  88 SE5       30.33S
$$

COZ035-036-038>040-031600-
...NORTHERN COLORADO FRONT RANGE...

CITY           SKY/WX    TMP DP  RH WIND       PRES   REMARKS
DENVER INTL AP CLOUDY    76  48  37 W5        30.10S
DMNS CITY PARK   N/A     72  55  54 N3        30.10F
AURORA         PTSUNNY   73  55  54 W3        30.13R
FRONT RANGE AP PTSUNNY   75  52  43 S10       30.12S
ERIE MUNI ARPT CLOUDY    70  52  52 CALM      30.10R
BOULDER MUN AP CLOUDY    72  50  46 SE3       30.10R
CENTENNIAL     CLOUDY    69  56  62 E8        30.14R
BROOMFIELD     CLOUDY    70  52  52 N6        30.13R
FORT COLLINS   PTSUNNY   70  54  56 N8        30.09S
LONGMONT       PTSUNNY   74  53  48 CALM      30.10S
$$

COZ041-046-047-076>085-087-088-031600-
...PIKES PEAK/PALMER DIVIDE AND SOUTHERN FOOTHILLS...

CITY           SKY/WX    TMP DP  RH WIND       PRES   REMARKS
COLO. SPRINGS  CLOUDY    70  52  52 NE6       30.18R
A. F. ACADEMY  CLOUDY    67  51  56 W5        30.19S
ELLICOTT       CLOUDY   N/A N/A N/A N3        30.16S
FALCON         CLOUDY    67  55  64 CALM      30.23R
FORT CARSON    NOT AVBL
LIMON          CLOUDY    71  57  61 CALM      30.12S
MONUMENT HILL  NOT AVBL
TRINIDAD       PTSUNNY   76  51  41 W9        30.13S
$$

COZ042>045-048>051-090-091-031600-
...NORTHEAST COLORADO...

CITY           SKY/WX    TMP DP  RH WIND       PRES   REMARKS
GREELEY ARPT   PTSUNNY   70  54  56 CALM      30.08R
AKRON          PTSUNNY   79  62  56 SW8       30.07R
BURLINGTON     PTSUNNY   78  65  63 SE6       30.06S
WRAY           MOSUNNY   79  60  52 SE7       30.04R
STERLING       PTSUNNY   72  57  60 S3        30.03R
HOLYOKE        MOSUNNY   79  61  53 SE8       30.04S
FORT MORGAN    PTSUNNY   76  55  46 S6        30.07R
$$

COZ086-089-092>099-031600-
...SOUTHEAST COLORADO...

CITY           SKY/WX    TMP DP  RH WIND       PRES   REMARKS
PUEBLO         CLOUDY    74  56  53 W7        30.07R
LA JUNTA       PTSUNNY   77  55  46 CALM      30.03S
LAMAR          PTSUNNY   79  67  66 NE8       29.99S
SPRINGFIELD      N/A     79  60  52 SW6       30.04R
$$



USA.gov is the U.S. government's official web portal to all federal, state and local government web resources and services.